Weather History for Patuxent River, MD

Change the Weather History Date:

Friday, November 16, 2012

  Actual Average Record
Temperature  
Mean Temperature 46 °F -  
Max Temperature 50 °F 57 °F 75 °F (2005)
Min Temperature 35 °F 41 °F 27 °F (2000)
Degree Days  
Heating Degree Days 19    
Moisture  
Dew Point 32 °F    
Average Humidity 60    
Maximum Humidity 85    
Minimum Humidity 48    
Precipitation  
Precipitation 0.01 in - - ()
Sea Level Pressure  
Sea Level Pressure 30.33 in    
Wind  
Wind Speed 8 mph (North)    
Max Wind Speed 13 mph    
Max Gust Speed 18 mph    
Visibility 10 miles    
Events Rain    
Averages and records for this station are not official NWS values.
T = Trace of Precipitation, MM = Missing Value Source: NWS Daily Summary

Daily Weather History Graph

Daily Weather History Graph

Search for Another Location

Airport:

Trip Planner

Search our weather history database for the weather conditions in past years. The results will help you decide how hot, cold, wet, or windy it might be!

Date:

Astronomy

Nov. 16, 2012 Rise Set
Actual Time 6:48 AM EST 4:52 PM EST
Civil Twilight 6:20 AM EST 5:20 PM EST
Nautical Twilight 5:48 AM EST 5:52 PM EST
Astronomical Twilight 5:16 AM EST 6:23 PM EST
Moon 9:40 AM EST (11/16) 7:49 PM EST (11/16)
Length of Visible Light 11h 00m
Length of Day
10h 03m
Waxing Crescent, 11% of the Moon is Illuminated
Nov 16
Waxing Crescent
Nov 20
First Quarter
Nov 28
Full
Dec 6
Last Quarter
Dec 13
New

Hourly Weather History & Observations

Time (EST) Temp. Windchill Dew Point Humidity Pressure Visibility Wind Dir Wind Speed Gust Speed Precip Events Conditions
12:52 AM 45.0 °F 43.5 °F 36.0 °F 71% 30.30 in 10.0 mi North 3.5 mph - N/A   Overcast
1:52 AM 45.0 °F 39.7 °F 35.1 °F 68% 30.28 in 10.0 mi NNE 10.4 mph - N/A   Overcast
2:52 AM 46.0 °F 41.9 °F 34.0 °F 63% 30.29 in 10.0 mi North 8.1 mph - N/A   Overcast
3:52 AM 45.0 °F 40.1 °F 33.1 °F 63% 30.29 in 10.0 mi North 9.2 mph - 0.00 in   Overcast
4:52 AM 44.1 °F 40.1 °F 33.1 °F 65% 30.30 in 10.0 mi North 6.9 mph - 0.00 in   Overcast
5:06 AM 44.6 °F 39.2 °F 33.8 °F 66% 30.29 in 10.0 mi North 10.4 mph - N/A   Overcast
5:12 AM 44.6 °F 39.7 °F 32.0 °F 61% 30.29 in 10.0 mi North 9.2 mph - 0.00 in   Light Drizzle
5:31 AM 44.6 °F 39.7 °F 32.0 °F 61% 30.29 in 10.0 mi North 9.2 mph - 0.00 in   Mostly Cloudy
5:52 AM 45.0 °F 39.3 °F 30.9 °F 58% 30.28 in 10.0 mi North 11.5 mph - 0.00 in   Mostly Cloudy
6:52 AM 45.0 °F 41.2 °F 30.9 °F 58% 30.31 in 10.0 mi NNE 6.9 mph - N/A   Mostly Cloudy
7:37 AM 44.6 °F 39.7 °F 32.0 °F 61% 30.32 in 10.0 mi North 9.2 mph - 0.00 in Rain Light Rain
7:52 AM 44.1 °F 39.0 °F 33.1 °F 65% 30.32 in 10.0 mi NNE 9.2 mph - 0.01 in Rain Light Rain
8:30 AM 44.6 °F 38.8 °F 32.0 °F 61% 30.33 in 10.0 mi North 11.5 mph - 0.00 in   Overcast
8:52 AM 45.0 °F 40.6 °F 32.0 °F 60% 30.34 in 10.0 mi NNE 8.1 mph - 0.00 in   Overcast
9:52 AM 48.0 °F - 33.1 °F 56% 30.33 in 10.0 mi North 9.2 mph - N/A   Mostly Cloudy
10:52 AM 48.0 °F - 28.9 °F 48% 30.35 in 10.0 mi North 10.4 mph - N/A   Mostly Cloudy
11:52 AM 48.0 °F - 34.0 °F 58% 30.34 in 10.0 mi North 12.7 mph - N/A   Mostly Cloudy
12:52 PM 48.9 °F - 33.1 °F 54% 30.32 in 10.0 mi North 12.7 mph 18.4 mph N/A   Mostly Cloudy
1:52 PM 50.0 °F - 30.9 °F 48% 30.32 in 10.0 mi North 12.7 mph - N/A   Scattered Clouds
2:52 PM 50.0 °F - 32.0 °F 50% 30.32 in 10.0 mi North 11.5 mph - N/A   Scattered Clouds
3:52 PM 48.9 °F - 32.0 °F 52% 30.33 in 10.0 mi NNW 10.4 mph - N/A   Scattered Clouds
4:52 PM 46.9 °F - 30.9 °F 54% 30.35 in 10.0 mi North 9.2 mph - N/A   Scattered Clouds
5:52 PM 46.9 °F - 30.0 °F 52% 30.36 in 10.0 mi North 10.4 mph - N/A   Partly Cloudy
6:52 PM 46.0 °F 41.4 °F 30.9 °F 56% 30.38 in 10.0 mi North 9.2 mph - N/A   Clear
7:52 PM 45.0 °F 41.2 °F 32.0 °F 60% 30.39 in 10.0 mi North 6.9 mph - N/A   Clear
8:52 PM 45.0 °F 40.6 °F 32.0 °F 60% 30.40 in 10.0 mi North 8.1 mph - N/A   Clear
9:52 PM 43.0 °F 39.5 °F 32.0 °F 65% 30.42 in 10.0 mi NNE 5.8 mph - N/A   Clear
10:52 PM 42.1 °F 40.2 °F 32.0 °F 67% 30.42 in 10.0 mi North 3.5 mph - N/A   Clear
11:52 PM 35.1 °F - 30.9 °F 85% 30.43 in 10.0 mi Calm Calm - N/A   Clear